HILAT

Satellite information

Favourite Embed

Satellite Type and Status

PAYLOADIN ORBIT

Key statistics

Satellite HILAT at a glance.

Uptime

15350

Days in orbit

Revolutions

≈ 14.4

Per day

Orbit

LEO

Low Earth Orbit

Inclination

82.0

Latest

Satellite identification and parameters

Extended collection of information and parameters for HILAT.

Object identification

Identified? True

Debris? False

Object name: HILAT

International designator: 1983-063A

Object number (NORAD): 14154

Object ID (CCSDS): 14154

Country: UNITED STATES OF AMERICA (US)

Current information (Y/N): Y

RCS size: LARGE

Orbital parameters

Period: 100.114 minutes

Inclination: 82.025 deg

SMA: 7142.064 km

Apoapsis: 791.09 km

Periapsis: 736.769 km

RAAN: 123.4026 deg

Eccentricy: 0.0038029

Argument of periapsis: 261.5949 deg

Mean anomaly: 221.2593 deg

Mean motion: 14.38358474 rev/day

Mean motion (dot): 0.00000328 rev/day2

B* drag term: 0.00010175 1/REarth

Two-line elements (TLE)

Creation date: July 5, 2025, 5:45 p.m.

Reference frame: TEME

Reference center: EARTH

Epoch: July 5, 2025, 9:04 a.m. UTC

TLE line 0: 0 HILAT

TLE line 1: 1 14154U 83063A 25186.37808470 .00000328 00000-0 10175-3 0 9994

TLE line 2: 2 14154 82.0250 123.4026 0038029 261.5949 221.2593 14.38358474197727

Live tracking on map

Real-time ground track for satellite HILAT.

In-orbit conjunctions

A list of the most updated potential collisions computed for object HILAT.

Target Orbit TCA Probability of collision Miss distance Type
NOAA 16 DEB SSO 2025-05-19 20:42:01 0.0003663037 356.0 (m) DEBRIS
DMSP 5D-3 F16 DEB SSO 2025-03-14 17:50:16 0.0004999883 272.0 (m) DEBRIS
SL-8 R/B LEO 2025-02-06 17:38:29 0.00015556 628.0 (m) ROCKET BODY
FENGYUN 1C DEB SSO 2024-09-06 10:34:36 0.0002917366 595.0 (m) DEBRIS
CZ-6A DEB SSO 2024-08-12 11:52:28 0.0003287229 113.0 (m) DEBRIS

Associated space launch

Refurbished Transit-O 16 satellite used to carry remote-sensing experiments and in situ measurements

HILAT was lifted into orbit during the mission ‘Scout D-1 | HILAT’, on board a Scout D-1 space rocket.

The launch took place on June 27, 1983, 3:37 p.m. from Space Launch Complex 5.

For more information about the launch, click the button.

Launch to space Scout D-1 | HILAT
Scout D-1 | HILAT

Agency: N/A

Status: Launch Successful

Launch date: June 27, 1983, 3:37 p.m. UTC

Rocket: Scout D-1

Launch pad: Space Launch Complex 5

Location: Vandenberg SFB, CA, USA

...

Latest news about this satellite

There are no fresh news available about this satellite. Check back as we update our databases every day.


Newsletter sign-up

Weekly statistics, charts and insights to help you stay on top of the space industry.